TimeCST,TemperatureF,Dew PointF,Humidity,Sea Level PressureIn,VisibilityMPH,Wind Direction,Wind SpeedMPH,Gust SpeedMPH,PrecipitationIn,Events,Conditions,WindDirDegrees,DateUTC
12:52 AM,27.0,21.9,81,30.17,10.0,West,3.5,-,N/A,,Clear,260,2012-01-04 06:52:00
1:52 AM,26.6,21.2,80,30.11,10.0,WSW,3.5,-,N/A,,Clear,240,2012-01-04 07:52:00
2:52 AM,21.9,19.0,89,30.16,10.0,SW,3.5,-,N/A,,Clear,220,2012-01-04 08:52:00
3:52 AM,28.0,24.1,85,30.14,10.0,WSW,6.9,-,N/A,,Clear,250,2012-01-04 09:52:00
4:52 AM,28.4,24.8,86,30.08,10.0,SW,4.6,-,N/A,,Clear,230,2012-01-04 10:52:00
5:52 AM,24.1,21.9,91,30.11,10.0,Calm,Calm,-,N/A,,Clear,0,2012-01-04 11:52:00
6:52 AM,27.0,23.0,85,30.09,10.0,Calm,Calm,-,N/A,,Clear,0,2012-01-04 12:52:00
7:52 AM,30.0,23.0,75,30.08,10.0,West,3.5,-,N/A,,Clear,270,2012-01-04 13:52:00
8:52 AM,30.0,23.0,75,30.09,10.0,Calm,Calm,-,N/A,,Clear,0,2012-01-04 14:52:00
9:52 AM,36.0,28.0,73,30.08,10.0,WNW,6.9,-,N/A,,Clear,290,2012-01-04 15:52:00
10:52 AM,41.0,27.0,57,30.08,10.0,WNW,8.1,-,N/A,,Clear,290,2012-01-04 16:52:00
11:52 AM,46.0,26.1,46,30.04,10.0,West,17.3,-,N/A,,Clear,280,2012-01-04 17:52:00
12:52 PM,48.9,27.0,43,30.04,10.0,West,11.5,-,N/A,,Clear,280,2012-01-04 18:52:00
1:52 PM,53.1,27.0,37,30.01,10.0,WNW,11.5,-,N/A,,Clear,300,2012-01-04 19:52:00
2:52 PM,55.0,27.0,34,30.00,10.0,WNW,10.4,23.0,N/A,,Clear,290,2012-01-04 20:52:00
3:52 PM,53.1,28.0,38,30.02,10.0,WNW,9.2,-,N/A,,Clear,300,2012-01-04 21:52:00
4:52 PM,48.9,28.0,44,30.05,10.0,WNW,8.1,-,N/A,,Clear,290,2012-01-04 22:52:00
5:52 PM,39.0,26.1,60,30.05,10.0,SW,3.5,-,N/A,,Clear,220,2012-01-04 23:52:00
6:52 PM,37.9,26.1,62,30.04,10.0,West,4.6,-,N/A,,Clear,270,2012-01-05 00:52:00
7:52 PM,37.0,26.1,65,30.02,10.0,WSW,5.8,-,N/A,,Clear,250,2012-01-05 01:52:00
8:52 PM,34.0,25.0,70,30.02,10.0,West,5.8,-,N/A,,Clear,260,2012-01-05 02:52:00
9:52 PM,37.0,25.0,62,30.00,10.0,SW,5.8,-,N/A,,Clear,230,2012-01-05 03:52:00
10:52 PM,33.1,24.1,70,29.99,10.0,WSW,4.6,-,N/A,,Clear,240,2012-01-05 04:52:00
11:52 PM,35.1,25.0,67,29.95,10.0,Calm,Calm,-,N/A,,Clear,0,2012-01-05 05:52:00